Location: Caltech
(34.1382°N, 118.1253°W)
Time: 00:29:30
(UTC-07:00)

Transit 2A - Visible Passes

Search period start: 23 August 2014 00:00
Search period end: 02 September 2014 00:00
Orbit: 602 x 961 km, 66.7° (Epoch: 22 August)

Date Brightness Start Highest point End Pass type
(mag) Time Alt. Az. Time Alt. Az. Time Alt. Az.
23 Aug 6.0 04:02:00 10° NNW 04:06:54 75° ENE 04:12:20 10° SSE visible
23 Aug 7.8 05:48:36 10° W 05:49:39 11° WSW 05:50:43 10° WSW visible
24 Aug 6.7 03:28:39 10° NNW 03:33:15 49° NE 03:33:15 49° NE visible
24 Aug 7.9 05:13:03 10° WNW 05:13:24 11° WNW 05:13:24 11° WNW visible
25 Aug 8.1 02:55:27 10° N 02:57:18 21° N 02:57:18 21° N visible
26 Aug 8.7 02:22:26 10° N 02:22:56 12° N 02:22:56 12° N visible
